QPF
0.09 0.08 0.07 0.07 0.07 0.07 0.08 0.09 0.10 0.08 0.07 0.07 0.07 0.07 0.08 0.08 0.10 0.09 0.08 0.10 0.09 0.10 0.11 0.13 0.14 0.14 0.14 0.12 0.11 0.10 0.10 0.10 0.10 0.10 0.10 0.11 0.11 0.11
0.15 0.13 0.10 0.09 0.09 0.08 0.09 0.09 0.10 0.10 0.09 0.08 0.06 0.06 0.07 0.07 0.07 0.05 0.06 0.07 0.06 0.05 0.07 0.09 0.10 0.11 0.12 0.11 0.10 0.10 0.10 0.10 0.09 0.09 0.09 0.09 0.08 0.08
0.15 0.14 0.12 0.11 0.10 0.10 0.11 0.12 0.13 0.14 0.13 0.10 0.08 0.08 0.07 0.06 0.06 0.06 0.05 0.05 0.05 0.06 0.07 0.07 0.09 0.10 0.13 0.15 0.17 0.17 0.15 0.13 0.12 0.11 0.11 0.11 0.09 0.08
0.11 0.12 0.13 0.14 0.13 0.11 0.11 0.11 0.11 0.11 0.10 0.09 0.08 0.07 0.07 0.07 0.06 0.06 0.05 0.05 0.05 0.07 0.08 0.08 0.10 0.11 0.13 0.16 0.17 0.18 0.19 0.18 0.16 0.14 0.13 0.12 0.12 0.11
0.08 0.09 0.08 0.07 0.06 0.05 0.06 0.06 0.06 0.07 0.06 0.07 0.06 0.05 0.05 0.06 0.06 0.06 0.06 0.05 0.06 0.07 0.08 0.09 0.12 0.13 0.13 0.13 0.12 0.13 0.13 0.12 0.13 0.13 0.14 0.14 0.13 0.12
0.05 0.07 0.09 0.07 0.04 0.03 0.04 0.04 0.05 0.06 0.06 0.05 0.06 0.06 0.06 0.06 0.06 0.05 0.05 0.05 0.05 0.06 0.09 0.08 0.07 0.07 0.08 0.09 0.11 0.13 0.13 0.12 0.11 0.11 0.11 0.12 0.12 0.13
0.04 0.05 0.09 0.13 0.13 0.08 0.05 0.06 0.07 0.08 0.08 0.08 0.09 0.10 0.09 0.08 0.06 0.06 0.06 0.06 0.05 0.03 0.03 0.03 0.03 0.03 0.04 0.06 0.07 0.10 0.12 0.12 0.12 0.12 0.12 0.12 0.11 0.11
0.04 0.04 0.06 0.12 0.16 0.15 0.13 0.13 0.11 0.10 0.09 0.09 0.10 0.11 0.09 0.08 0.07 0.06 0.06 0.06 0.06 0.05 0.05 0.05 0.06 0.06 0.05 0.05 0.05 0.05 0.05 0.06 0.07 0.08 0.09 0.09 0.09 0.11
0.04 0.03 0.04 0.05 0.08 0.10 0.10 0.10 0.10 0.10 0.10 0.07 0.06 0.07 0.07 0.06 0.06 0.05 0.05 0.05 0.05 0.05 0.05 0.05 0.06 0.07 0.07 0.06 0.06 0.05 0.05 0.06 0.06 0.06 0.07 0.08 0.08 0.08
0.03 0.02 0.02 0.02 0.02 0.03 0.04 0.05 0.06 0.07 0.06 0.04 0.03 0.03 0.03 0.03 0.03 0.03 0.03 0.02 0.02 0.02 0.02 0.03 0.04 0.05 0.05 0.05 0.05 0.05 0.06 0.06 0.06 0.07 0.07 0.06 0.06 0.06
0.02 0.01 0.01 0.01 0.01 0.02 0.02 0.02 0.02 0.01 0.01 0.02 0.02 0.01 0.01 0.01 0.01 0.01 0.01 0.01 0.02 0.03 0.04 0.05 0.06 0.07 0.07 0.06 0.06 0.07 0.06 0.06 0.05 0.05 0.05 0.05 0.04 0.04
0.01 0.01 0.01 0.01 0.01 0.01 0.00 0.00 0.00 0.00 0.00 0.00 0.00 0.00 0.00 0.00 0.00 0.00 0.01 0.01 0.01 0.02 0.02 0.03 0.04 0.06 0.08 0.08 0.07 0.06 0.05 0.04 0.03 0.03 0.03 0.02 0.02 0.02
0.01 0.01 0.01 0.01 0.01 0.01 0.01 0.00 0.00 0.00 0.00 0.00 0.00 0.00 0.00 0.01 0.01 0.01 0.01 0.02 0.02 0.02 0.02 0.02 0.03 0.03 0.03 0.04 0.05 0.05 0.04 0.03 0.03 0.03 0.02 0.02 0.02 0.02
0.00 0.00 0.00 0.01 0.01 0.01 0.01 0.00 0.00 0.00 0.00 0.00 0.00 0.00 0.01 0.01 0.01 0.01 0.01 0.01 0.01 0.01 0.01 0.01 0.01 0.02 0.03 0.03 0.03 0.03 0.03 0.03 0.03 0.05 0.06 0.04 0.04 0.05
0.01 0.01 0.01 0.01 0.01 0.01 0.01 0.00 0.00 0.00 0.00 0.00 0.00 0.00 0.01 0.01 0.01 0.01 0.02 0.02 0.02 0.01 0.01 0.01 0.01 0.01 0.01 0.02 0.02 0.02 0.02 0.02 0.02 0.02 0.03 0.03 0.04 0.04
0.02 0.02 0.01 0.01 0.00 0.00 0.00 0.00 0.00 0.00 0.00 0.00 0.00 0.01 0.01 0.01 0.02 0.02 0.02 0.02 0.02 0.02 0.02 0.01 0.01 0.01 0.01 0.00 0.01 0.01 0.01 0.01 0.01 0.01 0.02 0.03 0.03 0.03
0.00 0.00 0.00 0.00 0.00 0.00 0.00 0.00 0.00 0.00 0.00 0.00 0.00 0.00 0.00 0.00 0.00 0.00 0.00 0.00 0.00 0.01 0.01 0.01 0.01 0.01 0.01 0.00 0.00 0.00 0.00 0.01 0.01 0.01 0.01 0.02 0.02 0.03
0.00 0.00 0.00 0.00 0.00 0.00 0.00 0.00 0.00 0.00 0.00 0.00 0.00 0.00 0.00 0.00 0.00 0.00 0.00 0.00 0.00 0.00 0.00 0.00 0.00 0.00 0.00 0.00 0.00 0.00 0.00 0.00 0.00 0.00 0.00 0.00 0.01 0.02
0.00 0.01 0.01 0.00 0.00 0.00 0.00 0.00 0.00 0.00 0.00 0.00 0.00 0.00 0.00 0.00 0.00 0.00 0.00 0.00 0.00 0.00 0.00 0.00 0.00 0.00 0.00 0.00 0.00 0.00 0.00 0.00 0.00 0.00 0.00 0.00 0.00 0.01
0.00 0.00 0.00 0.00 0.00 0.00 0.00 0.00 0.00 0.00 0.00 0.00 0.00 0.00 0.00 0.00 0.00 0.00 0.00 0.00 0.00 0.00 0.00 0.00 0.00 0.00 0.00 0.00 0.00 0.00 0.00 0.00 0.00 0.00 0.00 0.00 0.01 0.01
0.01 0.00 0.00 0.00 0.00 0.00 0.00 0.00 0.00 0.00 0.00 0.00 0.00 0.00 0.00 0.00 0.00 0.00 0.00 0.00 0.00 0.00 0.00 0.00 0.00 0.00 0.00 0.00 0.00 0.00 0.00 0.00 0.00 0.00 0.00 0.00 0.00 0.00
0.00 0.00 0.00 0.01 0.00 0.00 0.00 0.00 0.00 0.00 0.00 0.00 0.00 0.00 0.00 0.00 0.00 0.00 0.00 0.00 0.00 0.00 0.00 0.00 0.00 0.00 0.00 0.00 0.00 0.00 0.00 0.00 0.00 0.00 0.00 0.00 0.00 0.00
0.01 0.00 0.00 0.00 0.00 0.00 0.00 0.00 0.00 0.00 0.00 0.00 0.00 0.00 0.00 0.00 0.00 0.00 0.00 0.00 0.00 0.00 0.00 0.00 0.00 0.00 0.00 0.00 0.00 0.00 0.00 0.00 0.00 0.00 0.00 0.00 0.00 0.00
MSLP
1016.32 1016.60 1016.90 1017.17 1017.36 1017.41 1017.33 1017.13 1016.83 1016.48 1016.14 1015.85 1015.64 1015.52 1015.47 1015.47 1015.48 1015.46 1015.39 1015.26 1015.07 1014.85 1014.62 1014.43 1014.31 1014.28 1014.37 1014.58 1014.91 1015.34 1015.85 1016.42 1017.01 1017.60 1018.16 1018.65 1019.07 1019.41
1016.27 1016.50 1016.74 1016.96 1017.10 1017.12 1017.03 1016.82 1016.54 1016.23 1015.94 1015.72 1015.59 1015.57 1015.61 1015.70 1015.79 1015.84 1015.82 1015.71 1015.51 1015.24 1014.95 1014.67 1014.45 1014.31 1014.30 1014.41 1014.67 1015.05 1015.54 1016.12 1016.76 1017.41 1018.06 1018.68 1019.22 1019.69
1016.44 1016.60 1016.77 1016.92 1016.99 1016.97 1016.84 1016.62 1016.36 1016.08 1015.85 1015.71 1015.67 1015.74 1015.89 1016.09 1016.28 1016.42 1016.47 1016.42 1016.25 1015.99 1015.68 1015.36 1015.07 1014.86 1014.75 1014.79 1014.96 1015.28 1015.73 1016.28 1016.92 1017.61 1018.32 1019.01 1019.65 1020.23
1016.78 1016.87 1016.97 1017.05 1017.06 1016.98 1016.81 1016.58 1016.32 1016.07 1015.89 1015.81 1015.85 1016.02 1016.27 1016.57 1016.87 1017.12 1017.27 1017.31 1017.21 1017.01 1016.74 1016.43 1016.13 1015.88 1015.73 1015.69 1015.80 1016.05 1016.43 1016.93 1017.53 1018.21 1018.92 1019.64 1020.34 1020.97
1017.24 1017.28 1017.32 1017.33 1017.28 1017.15 1016.95 1016.70 1016.44 1016.21 1016.07 1016.04 1016.14 1016.38 1016.71 1017.10 1017.50 1017.85 1018.11 1018.26 1018.28 1018.18 1017.99 1017.75 1017.49 1017.27 1017.11 1017.04 1017.10 1017.28 1017.59 1018.01 1018.54 1019.16 1019.83 1020.52 1021.21 1021.84
1017.77 1017.77 1017.77 1017.73 1017.63 1017.46 1017.23 1016.97 1016.71 1016.49 1016.37 1016.37 1016.51 1016.78 1017.17 1017.62 1018.09 1018.53 1018.90 1019.16 1019.31 1019.34 1019.27 1019.15 1018.99 1018.83 1018.71 1018.66 1018.69 1018.82 1019.05 1019.39 1019.83 1020.35 1020.93 1021.55 1022.17 1022.77
1018.29 1018.28 1018.25 1018.18 1018.06 1017.87 1017.62 1017.35 1017.09 1016.89 1016.77 1016.78 1016.93 1017.22 1017.62 1018.10 1018.61 1019.11 1019.55 1019.92 1020.19 1020.36 1020.44 1020.45 1020.42 1020.37 1020.33 1020.32 1020.35 1020.46 1020.63 1020.88 1021.22 1021.63 1022.10 1022.61 1023.13 1023.65
1018.76 1018.74 1018.71 1018.63 1018.50 1018.31 1018.07 1017.81 1017.56 1017.36 1017.25 1017.26 1017.40 1017.67 1018.06 1018.52 1019.03 1019.55 1020.04 1020.48 1020.85 1021.14 1021.36 1021.52 1021.63 1021.70 1021.76 1021.82 1021.89 1021.98 1022.12 1022.30 1022.54 1022.84 1023.19 1023.58 1024.00 1024.41
1019.14 1019.13 1019.10 1019.03 1018.91 1018.73 1018.52 1018.28 1018.06 1017.88 1017.78 1017.79 1017.91 1018.15 1018.49 1018.92 1019.39 1019.89 1020.39 1020.86 1021.28 1021.66 1021.99 1022.27 1022.50 1022.70 1022.87 1023.00 1023.12 1023.24 1023.35 1023.49 1023.66 1023.86 1024.11 1024.40 1024.71 1025.03
1019.42 1019.42 1019.40 1019.34 1019.24 1019.10 1018.93 1018.74 1018.56 1018.42 1018.34 1018.35 1018.46 1018.67 1018.96 1019.32 1019.73 1020.18 1020.63 1021.08 1021.52 1021.94 1022.33 1022.69 1023.02 1023.32 1023.58 1023.79 1023.97 1024.12 1024.24 1024.36 1024.48 1024.63 1024.80 1025.01 1025.24 1025.49
1019.62 1019.62 1019.61 1019.57 1019.50 1019.40 1019.28 1019.15 1019.03 1018.94 1018.91 1018.94 1019.04 1019.22 1019.46 1019.76 1020.10 1020.46 1020.85 1021.24 1021.65 1022.05 1022.46 1022.86 1023.24 1023.60 1023.92 1024.21 1024.44 1024.63 1024.78 1024.90 1025.01 1025.12 1025.26 1025.42 1025.60 1025.81
1019.76 1019.76 1019.76 1019.74 1019.70 1019.64 1019.57 1019.51 1019.45 1019.43 1019.45 1019.51 1019.63 1019.80 1020.00 1020.24 1020.50 1020.79 1021.09 1021.40 1021.74 1022.09 1022.47 1022.86 1023.25 1023.64 1024.00 1024.32 1024.60 1024.83 1025.01 1025.16 1025.28 1025.39 1025.51 1025.66 1025.83 1026.01
1019.88 1019.87 1019.87 1019.86 1019.85 1019.83 1019.81 1019.80 1019.81 1019.85 1019.93 1020.04 1020.19 1020.36 1020.55 1020.75 1020.95 1021.15 1021.37 1021.60 1021.85 1022.13 1022.44 1022.79 1023.16 1023.53 1023.90 1024.25 1024.55 1024.81 1025.03 1025.20 1025.35 1025.48 1025.61 1025.76 1025.93 1026.12
1020.00 1019.99 1019.98 1019.98 1019.97 1019.97 1019.99 1020.03 1020.09 1020.19 1020.33 1020.49 1020.67 1020.86 1021.05 1021.23 1021.38 1021.53 1021.67 1021.82 1021.99 1022.19 1022.43 1022.71 1023.04 1023.38 1023.73 1024.08 1024.39 1024.67 1024.91 1025.11 1025.28 1025.43 1025.59 1025.75 1025.93 1026.13
1020.13 1020.11 1020.10 1020.09 1020.08 1020.09 1020.12 1020.18 1020.28 1020.42 1020.60 1020.81 1021.03 1021.24 1021.44 1021.61 1021.75 1021.86 1021.95 1022.03 1022.13 1022.26 1022.44 1022.66 1022.92 1023.22 1023.55 1023.87 1024.18 1024.47 1024.72 1024.93 1025.12 1025.30 1025.46 1025.63 1025.82 1026.02
1020.25 1020.23 1020.21 1020.18 1020.16 1020.16 1020.18 1020.25 1020.37 1020.53 1020.74 1020.97 1021.22 1021.46 1021.67 1021.85 1021.98 1022.08 1022.14 1022.19 1022.24 1022.32 1022.44 1022.61 1022.82 1023.08 1023.37 1023.67 1023.96 1024.24 1024.49 1024.71 1024.90 1025.07 1025.24 1025.41 1025.59 1025.78
1020.32 1020.31 1020.27 1020.23 1020.19 1020.17 1020.18 1020.23 1020.34 1020.50 1020.72 1020.96 1021.22 1021.48 1021.71 1021.90 1022.04 1022.14 1022.20 1022.23 1022.27 1022.32 1022.41 1022.54 1022.72 1022.94 1023.20 1023.47 1023.74 1023.99 1024.23 1024.43 1024.62 1024.78 1024.94 1025.09 1025.25 1025.42
1020.29 1020.28 1020.25 1020.19 1020.13 1020.09 1020.08 1020.11 1020.20 1020.35 1020.56 1020.80 1021.06 1021.33 1021.57 1021.77 1021.93 1022.04 1022.11 1022.15 1022.19 1022.24 1022.32 1022.43 1022.59 1022.79 1023.02 1023.26 1023.50 1023.73 1023.94 1024.13 1024.29 1024.43 1024.56 1024.69 1024.82 1024.95
1020.11 1020.11 1020.08 1020.03 1019.96 1019.91 1019.88 1019.90 1019.97 1020.11 1020.30 1020.53 1020.79 1021.05 1021.29 1021.51 1021.68 1021.80 1021.89 1021.96 1022.01 1022.08 1022.16 1022.28 1022.43 1022.61 1022.82 1023.04 1023.25 1023.46 1023.64 1023.79 1023.92 1024.03 1024.13 1024.23 1024.33 1024.43
1019.76 1019.78 1019.76 1019.72 1019.66 1019.61 1019.59 1019.61 1019.68 1019.81 1019.99 1020.21 1020.45 1020.71 1020.95 1021.17 1021.35 1021.49 1021.60 1021.69 1021.77 1021.86 1021.96 1022.09 1022.24 1022.41 1022.61 1022.80 1022.99 1023.17 1023.32 1023.44 1023.54 1023.62 1023.69 1023.76 1023.83 1023.90
1019.24 1019.28 1019.29 1019.27 1019.25 1019.23 1019.23 1019.27 1019.35 1019.48 1019.67 1019.88 1020.12 1020.36 1020.60 1020.81 1021.00 1021.16 1021.28 1021.40 1021.50 1021.61 1021.73 1021.87 1022.03 1022.20 1022.38 1022.56 1022.72 1022.87 1022.99 1023.08 1023.16 1023.22 1023.27 1023.31 1023.36 1023.42
1018.59 1018.67 1018.71 1018.74 1018.76 1018.79 1018.83 1018.91 1019.03 1019.19 1019.38 1019.59 1019.83 1020.06 1020.29 1020.49 1020.67 1020.83 1020.97 1021.10 1021.22 1021.35 1021.49 1021.64 1021.80 1021.97 1022.14 1022.30 1022.44 1022.56 1022.65 1022.72 1022.78 1022.82 1022.86 1022.90 1022.94 1022.99
1017.90 1018.00 1018.09 1018.18 1018.26 1018.35 1018.46 1018.59 1018.75 1018.94 1019.15 1019.37 1019.59 1019.82 1020.02 1020.21 1020.39 1020.54 1020.68 1020.81 1020.95 1021.09 1021.23 1021.39 1021.55 1021.72 1021.87 1022.01 1022.13 1022.22 1022.29 1022.35 1022.39 1022.42 1022.46 1022.51 1022.56 1022.62
Thickness
5730 5728 5727 5726 5725 5724 5723 5721 5717 5713 5712 5713 5713 5714 5713 5713 5712 5711 5710 5709 5708 5707 5706 5704 5702 5700 5699 5698 5697 5695 5693 5692 5690 5688 5687 5686 5685 5683
5726 5725 5724 5723 5722 5721 5719 5718 5717 5714 5709 5709 5708 5708 5708 5707 5706 5704 5702 5701 5700 5700 5698 5697 5695 5694 5692 5691 5690 5688 5687 5685 5683 5682 5680 5679 5678 5676
5723 5722 5720 5720 5718 5717 5715 5714 5712 5710 5705 5703 5703 5702 5701 5700 5699 5697 5696 5694 5692 5691 5690 5688 5687 5686 5685 5683 5682 5680 5678 5676 5675 5673 5672 5670 5669 5668
5719 5718 5716 5716 5713 5712 5710 5708 5706 5705 5702 5698 5696 5695 5694 5692 5691 5690 5688 5687 5684 5682 5681 5680 5678 5677 5675 5673 5672 5670 5669 5667 5665 5663 5662 5661 5659 5658
5714 5712 5711 5710 5708 5706 5704 5702 5701 5699 5697 5693 5690 5688 5686 5684 5683 5681 5679 5677 5675 5673 5671 5669 5668 5666 5664 5663 5661 5659 5657 5655 5653 5651 5650 5648 5647 5646
5708 5707 5705 5704 5702 5700 5698 5696 5694 5692 5690 5687 5683 5680 5678 5675 5674 5671 5668 5666 5664 5661 5659 5658 5656 5654 5652 5650 5649 5646 5644 5643 5641 5639 5636 5635 5634 5633
5701 5700 5699 5697 5696 5694 5692 5689 5688 5685 5682 5678 5675 5672 5669 5666 5664 5661 5659 5656 5653 5650 5648 5646 5644 5641 5639 5637 5635 5633 5631 5629 5627 5624 5622 5620 5619 5618
5693 5692 5691 5689 5688 5686 5684 5683 5681 5677 5673 5670 5667 5664 5660 5657 5655 5653 5650 5648 5643 5638 5637 5633 5631 5628 5625 5623 5621 5619 5617 5615 5613 5611 5608 5606 5604 5603
5685 5684 5683 5680 5679 5677 5675 5673 5671 5669 5666 5663 5659 5655 5652 5649 5647 5644 5640 5637 5632 5627 5625 5621 5618 5615 5611 5609 5607 5606 5604 5601 5599 5596 5594 5592 5590 5588
5677 5676 5673 5671 5670 5668 5666 5663 5660 5658 5656 5653 5650 5646 5644 5641 5638 5634 5630 5625 5621 5617 5615 5611 5606 5602 5599 5596 5594 5593 5590 5588 5585 5582 5580 5578 5575 5573
5668 5666 5664 5662 5660 5659 5658 5654 5651 5647 5645 5642 5639 5636 5633 5631 5628 5625 5621 5618 5613 5608 5603 5600 5595 5591 5588 5584 5581 5579 5577 5575 5572 5569 5566 5563 5561 5560
5660 5657 5655 5654 5651 5650 5647 5644 5640 5636 5633 5631 5628 5625 5622 5619 5616 5613 5611 5607 5603 5598 5592 5589 5585 5581 5578 5573 5569 5566 5564 5561 5558 5555 5553 5550 5548 5547
5652 5649 5646 5644 5642 5640 5637 5634 5629 5627 5624 5621 5617 5614 5611 5607 5604 5600 5597 5595 5591 5586 5581 5578 5575 5571 5567 5563 5559 5555 5552 5549 5546 5543 5540 5537 5535 5533
5644 5640 5637 5635 5633 5630 5627 5623 5620 5618 5614 5610 5606 5601 5598 5594 5591 5588 5585 5581 5577 5573 5569 5566 5564 5560 5556 5553 5549 5544 5540 5537 5534 5531 5528 5525 5523 5520
5635 5632 5629 5626 5623 5619 5616 5613 5610 5607 5603 5599 5594 5589 5584 5581 5579 5576 5573 5570 5566 5562 5558 5555 5551 5548 5544 5541 5536 5532 5529 5525 5521 5518 5516 5513 5510 5508
5627 5623 5620 5616 5613 5608 5605 5601 5598 5595 5591 5586 5582 5577 5574 5571 5568 5565 5562 5558 5555 5551 5547 5543 5540 5537 5533 5528 5525 5521 5517 5514 5510 5507 5504 5502 5499 5497
5619 5615 5611 5607 5603 5598 5594 5590 5587 5584 5580 5575 5572 5568 5565 5561 5557 5553 5549 5547 5543 5539 5536 5532 5529 5525 5521 5518 5515 5512 5508 5504 5500 5497 5495 5493 5490 5487
5611 5605 5600 5596 5592 5588 5584 5580 5576 5572 5568 5565 5561 5558 5554 5550 5546 5542 5539 5536 5533 5529 5525 5521 5519 5517 5513 5509 5503 5501 5499 5495 5491 5488 5486 5485 5483 5479
5601 5596 5591 5586 5582 5578 5574 5570 5566 5561 5558 5555 5551 5547 5543 5540 5536 5532 5529 5526 5522 5519 5515 5511 5508 5507 5505 5502 5497 5491 5489 5487 5484 5481 5478 5476 5475 5473
5591 5587 5582 5577 5573 5569 5565 5561 5556 5552 5549 5545 5541 5537 5534 5530 5527 5522 5519 5515 5512 5509 5506 5502 5499 5495 5493 5491 5488 5484 5480 5478 5476 5475 5472 5469 5467 5465
5582 5578 5573 5569 5565 5560 5556 5551 5547 5543 5539 5535 5532 5527 5524 5520 5517 5513 5510 5504 5502 5499 5497 5494 5489 5484 5482 5480 5480 5478 5474 5470 5468 5466 5465 5464 5463 5462
5574 5569 5565 5560 5556 5551 5547 5543 5539 5534 5530 5526 5522 5518 5514 5511 5508 5504 5501 5498 5494 5491 5488 5485 5481 5478 5476 5475 5473 5470 5468 5465 5462 5460 5458 5457 5456 5457
5566 5561 5557 5552 5548 5543 5539 5535 5530 5526 5521 5517 5514 5510 5506 5503 5499 5496 5492 5489 5486 5483 5480 5477 5474 5471 5469 5467 5465 5463 5461 5459 5458 5456 5454 5452 5450 5449